Lapse_Rate
6.0 6.0 5.9 5.9 6.1 6.3 6.5 6.7 6.5 6.4 6.5 6.6 6.7 7.3 7.4 7.6 7.8 7.8 8.0 8.3 7.8 7.6 7.9 7.5 8.3 8.3 8.0 8.0 7.9 7.9 6.7 7.1 7.5 8.1 8.8 8.6 8.6 8.2 8.0 8.2 8.4 8.2 8.6 8.4 8.4
6.4 6.4 6.4 6.4 6.4 6.5 6.7 6.7 6.9 6.8 6.6 6.7 6.7 6.8 6.9 7.3 7.7 7.7 8.0 8.1 7.5 7.2 7.5 7.7 8.1 8.1 8.3 7.9 7.9 7.6 6.8 7.1 8.4 8.9 8.6 8.5 8.5 8.2 8.1 8.1 8.4 8.7 8.9 8.5 8.3
6.1 6.2 6.2 6.2 6.2 6.1 6.2 6.5 6.9 7.1 7.1 6.9 6.7 6.7 6.7 6.7 7.1 7.6 7.9 8.1 8.0 7.2 7.3 7.7 8.0 7.5 7.8 7.9 7.8 7.6 6.9 8.4 8.5 8.8 8.5 8.3 8.1 8.0 7.9 8.2 8.7 8.9 9.1 8.8 8.4
5.9 5.9 6.0 6.0 6.0 6.0 5.9 5.9 6.2 6.5 6.6 6.8 6.9 6.9 7.0 6.7 6.4 6.8 7.5 7.9 8.2 8.1 7.7 7.8 7.7 7.7 7.9 7.9 8.1 7.9 7.6 8.1 8.5 8.6 8.1 8.3 7.8 7.7 7.8 8.4 8.7 9.1 8.8 8.4 8.1
5.7 5.6 5.6 5.6 5.6 5.6 5.6 5.5 5.6 5.9 6.2 6.4 6.5 6.6 6.8 6.8 6.8 6.5 6.5 7.2 7.8 8.0 8.0 8.0 8.0 8.0 8.2 8.3 8.3 7.5 7.6 8.5 8.3 8.3 8.5 8.3 7.7 7.2 8.2 8.7 8.9 9.1 8.6 8.4 7.9
4.8 4.8 4.7 4.6 4.6 4.8 5.0 5.2 5.3 5.4 5.5 5.8 6.1 6.1 6.2 6.4 6.9 6.9 6.6 6.5 7.0 7.6 8.0 8.1 8.2 8.3 8.0 7.9 8.1 7.8 7.4 8.0 8.0 7.9 8.4 8.0 8.1 6.6 8.3 8.9 8.9 8.8 8.4 8.3 7.9
4.0 4.0 3.8 3.7 3.7 3.7 3.8 3.8 4.0 4.3 4.6 4.9 5.2 5.5 5.9 6.2 6.5 6.9 6.7 6.8 6.5 7.0 7.4 7.9 8.0 7.9 8.1 7.9 7.9 7.7 7.4 7.2 7.5 7.9 7.8 8.2 7.4 7.5 8.7 8.6 8.6 8.5 8.2 8.0 7.7
3.6 3.5 3.3 3.2 3.2 3.1 3.1 3.1 3.2 3.4 3.6 3.9 4.3 4.8 5.4 5.6 6.5 6.6 6.5 6.7 6.8 6.6 6.9 7.5 7.6 7.8 7.6 7.6 7.8 7.3 7.3 6.6 7.0 8.0 8.1 7.9 6.9 8.1 8.6 8.5 8.8 8.7 8.2 7.7 7.7
3.1 2.9 2.7 2.6 2.6 2.6 2.7 2.8 2.9 3.1 3.2 3.2 3.4 3.9 4.9 5.0 5.8 6.5 6.4 6.4 7.0 6.6 6.6 7.0 7.0 7.3 7.4 7.2 6.9 6.5 6.5 6.5 6.7 7.1 7.9 8.0 7.4 8.0 8.4 8.5 8.7 8.8 8.2 8.0 8.1
2.9 2.8 2.5 2.3 2.2 2.2 2.3 2.3 2.6 2.7 3.0 3.2 3.2 3.2 4.2 4.2 4.7 5.9 6.5 6.3 6.7 6.9 6.6 6.6 6.9 6.5 6.7 6.2 5.3 6.1 6.0 6.0 6.4 6.9 8.2 8.2 7.8 8.0 8.2 8.4 8.7 8.8 8.3 8.3 8.5
2.7 2.6 2.4 2.4 2.4 2.4 2.4 2.3 2.3 2.4 2.5 2.7 3.0 2.9 3.4 4.0 4.1 5.1 5.3 5.4 6.4 6.5 6.4 6.4 6.6 5.7 6.1 6.5 6.7 6.8 6.7 6.7 7.2 7.4 7.9 8.2 7.9 7.9 8.3 8.4 8.6 8.6 8.3 8.6 8.6
2.4 2.3 2.3 2.2 2.1 2.1 2.2 2.8 3.0 2.4 2.9 3.7 3.6 3.0 3.6 3.8 3.3 4.4 4.2 5.3 5.9 6.7 6.8 5.9 6.2 6.6 6.9 6.5 6.8 6.4 6.3 6.5 6.5 7.3 7.4 7.4 7.4 7.6 8.0 8.2 8.4 8.3 8.4 8.6 8.6
2.3 2.2 2.3 2.7 3.1 3.3 4.3 4.8 4.5 4.6 3.4 5.7 5.4 4.5 4.2 3.6 3.0 4.9 4.2 4.8 5.6 6.1 6.6 6.8 6.8 7.1 6.9 6.7 6.2 6.0 6.1 6.7 7.0 7.2 7.0 7.1 6.8 6.9 7.5 7.8 8.1 8.4 8.3 8.6 8.8
2.6 3.1 3.9 5.3 5.8 5.7 6.0 6.1 5.8 5.6 5.1 6.4 6.1 5.4 5.1 4.4 4.0 4.6 4.9 4.8 4.7 5.7 6.0 6.2 6.4 6.3 7.0 6.4 6.1 6.2 6.9 6.6 6.8 6.9 7.0 7.5 6.8 6.5 6.8 7.6 7.9 8.3 8.4 8.8 8.7
4.4 5.4 6.1 6.2 6.4 6.4 6.7 6.6 6.4 6.2 6.4 6.7 6.5 6.4 5.8 5.6 5.2 5.3 5.9 5.8 5.2 4.9 5.3 5.6 5.4 5.5 5.9 6.3 7.1 6.6 6.6 6.5 6.8 6.9 6.7 6.6 6.5 5.9 6.4 7.8 8.3 8.5 8.7 8.9 8.4
6.0 6.3 6.4 6.6 6.6 6.5 6.6 6.7 6.6 6.5 6.6 7.4 7.1 7.3 7.2 6.7 6.7 5.9 5.5 5.9 5.8 5.7 5.3 6.0 6.2 6.6 7.0 6.6 7.2 6.3 6.6 6.4 6.6 7.0 6.6 6.4 5.9 5.8 7.0 8.2 8.2 8.5 8.5 8.3 8.4
6.4 6.6 6.7 6.6 6.6 6.5 6.5 6.5 6.5 6.7 7.4 7.4 7.2 7.5 7.5 7.4 7.6 7.0 6.1 6.0 5.6 5.6 5.3 5.5 5.6 6.1 6.6 6.2 6.5 6.1 6.4 7.0 6.9 7.0 6.2 7.0 6.5 6.8 7.8 8.2 8.2 8.3 8.3 8.3 8.2
6.8 6.9 7.0 6.8 6.9 6.9 6.9 6.6 6.5 7.3 7.4 7.3 7.3 7.7 8.0 7.4 7.5 7.5 6.7 6.7 6.0 6.3 6.7 6.0 6.1 5.8 5.8 5.9 6.0 6.1 6.5 7.0 7.0 7.3 7.9 6.5 6.6 7.3 8.6 8.8 8.5 8.5 8.5 8.4 8.2
7.2 7.5 7.3 7.1 7.4 7.5 7.4 7.1 7.5 7.5 7.4 6.9 7.5 7.7 8.0 7.4 6.8 6.7 6.5 6.4 6.6 6.7 6.2 6.6 6.5 7.0 6.3 6.3 6.5 6.1 5.8 6.9 7.2 6.8 7.3 6.8 6.9 7.5 8.1 8.4 8.6 8.7 8.7 8.7 8.6
7.6 7.6 7.5 7.7 7.8 7.4 7.3 7.3 7.4 7.2 7.3 7.4 7.3 7.5 7.3 7.3 7.0 6.5 6.1 6.6 6.6 6.7 5.5 6.0 6.3 6.7 6.9 6.6 6.8 6.6 6.7 6.4 6.7 6.9 6.6 7.1 6.7 7.4 8.1 8.8 8.8 8.8 8.7 8.9 8.6
7.6 7.6 7.6 7.8 8.0 7.4 7.4 7.4 7.4 7.4 7.4 7.5 7.4 7.0 7.1 6.9 6.7 6.4 6.4 6.1 6.2 6.6 5.7 6.1 5.5 6.8 7.1 5.9 6.4 5.8 6.0 6.4 6.8 6.9 7.2 6.7 7.2 7.7 8.7 8.6 8.9 8.9 8.8 8.5 8.5
7.7 7.4 7.5 7.7 7.7 7.6 7.5 7.3 7.5 7.5 7.5 7.3 7.5 7.4 7.1 6.7 6.6 6.5 6.2 5.8 5.7 5.6 5.6 6.4 5.9 6.6 6.5 6.7 6.5 6.4 6.7 6.6 6.9 6.1 6.8 6.9 7.4 7.8 8.3 8.5 9.0 9.1 8.8 8.4 8.3
7.4 7.5 7.5 7.4 7.6 7.7 7.8 7.6 7.5 7.4 7.3 7.4 7.3 7.2 7.0 6.8 6.7 6.6 6.3 6.1 5.7 5.7 5.4 5.7 6.0 6.8 7.1 6.7 6.5 6.4 6.7 6.4 6.8 6.9 6.4 6.7 7.7 8.1 8.6 9.0 8.8 8.8 8.7 8.3 8.5
7.2 7.3 7.2 7.3 7.3 7.2 7.4 7.9 7.5 7.5 7.5 7.3 7.2 7.1 7.2 7.2 7.2 6.6 6.1 5.8 5.8 5.6 5.8 4.7 4.7 5.6 7.2 6.8 6.2 5.9 6.3 6.6 6.8 6.8 6.4 6.1 7.7 8.9 8.7 8.8 8.4 8.3 8.4 8.5 8.8
7.0 6.9 7.1 7.0 6.9 6.8 6.9 7.1 7.3 7.1 7.5 7.4 7.5 7.2 6.9 6.9 6.8 6.9 6.4 6.1 5.8 5.7 5.5 4.5 4.9 4.6 5.6 5.9 5.8 6.2 6.4 6.4 6.3 6.4 6.5 6.7 7.1 8.1 8.9 8.6 8.4 8.3 8.4 8.6 8.7
6.8 6.7 7.0 6.9 7.0 6.9 7.0 7.1 7.2 7.1 7.0 7.5 7.3 7.5 7.2 6.8 6.6 7.1 6.6 5.7 5.9 5.6 4.8 4.7 4.6 4.8 5.8 5.8 5.3 5.9 6.0 6.2 6.3 6.4 6.3 6.7 7.1 7.7 8.3 8.3 8.4 8.3 8.4 8.4 8.5
6.9 6.9 6.8 6.8 7.2 6.8 7.0 7.1 7.3 7.3 7.5 7.0 7.0 7.2 7.5 7.2 7.1 7.0 6.6 6.0 5.9 5.5 5.3 5.1 4.6 4.6 6.0 6.0 5.9 6.1 6.2 6.0 6.3 6.5 6.2 6.4 8.5 7.9 8.0 8.4 8.3 8.5 8.7 8.7 8.4
Wind_Speed
13 14 14 15 15 15 15 15 16 17 18 18 16 16 19 22 22 3 11 9 7 7 8 9 5 6 8 8 5 3 6 13 15 12 9 2 5 2 5 8 6 3 13 13 5
15 15 15 15 15 15 14 15 16 15 15 16 16 15 17 20 7 9 12 15 22 15 12 14 9 11 7 9 7 9 12 18 16 15 13 7 8 8 8 15 21 17 15 11 8
17 18 17 16 17 16 16 15 15 16 15 15 16 16 15 16 6 6 11 21 28 20 16 12 11 15 10 5 11 10 20 26 21 19 9 19 18 13 16 23 24 19 21 23 18
18 18 17 18 19 20 20 18 17 15 15 16 14 14 15 4 9 9 20 15 11 18 15 14 13 12 11 16 17 16 23 24 27 18 14 22 20 19 20 31 24 24 21 20 22
20 20 20 20 20 20 20 20 19 17 15 15 14 13 6 5 9 2 13 14 5 9 16 19 19 19 16 15 19 22 22 21 21 21 21 20 22 19 26 31 23 23 21 20 20
20 21 21 21 21 21 20 21 21 20 18 15 13 13 5 14 7 10 11 8 4 7 10 15 9 12 11 12 21 12 22 24 19 18 24 21 26 18 26 27 21 21 22 22 20
21 21 22 22 22 21 21 21 20 21 20 16 12 8 13 22 10 13 18 6 2 2 13 15 19 7 6 9 16 16 17 14 15 16 15 11 24 19 31 21 20 24 21 21 20
23 22 23 22 22 23 25 23 23 24 22 17 10 8 9 10 13 16 16 11 13 17 10 11 14 18 9 4 1 10 10 17 13 19 11 14 28 19 19 13 17 18 17 17 19
25 24 24 23 22 24 26 26 30 19 10 6 4 6 10 7 7 13 15 15 9 12 11 6 10 11 8 14 9 10 14 15 10 9 4 15 21 16 10 8 17 19 19 19 19
24 26 25 26 24 24 24 28 16 1 3 5 3 4 6 2 4 13 9 15 10 11 8 9 10 12 15 15 23 19 15 16 17 9 15 22 25 17 18 12 19 18 18 18 20
25 25 23 23 23 23 19 5 2 2 3 7 9 8 20 10 13 8 4 3 13 16 16 19 12 28 30 24 19 20 22 28 21 13 15 18 18 13 17 18 21 19 19 20 19
26 25 23 22 22 17 3 3 5 2 11 15 23 23 25 13 11 15 6 8 10 20 21 13 29 26 22 23 22 23 24 21 14 10 12 16 20 15 18 23 21 19 19 20 17
25 24 22 22 21 2 5 3 6 8 5 15 9 9 8 7 11 23 7 8 12 19 29 28 39 18 20 22 24 26 26 24 20 15 15 16 23 20 20 12 16 17 19 19 16
25 23 22 21 2 5 4 1 9 4 4 6 3 4 1 4 7 14 14 14 12 22 24 23 23 25 26 29 22 26 24 20 19 11 15 3 16 18 20 22 21 21 16 16 12
24 23 22 15 8 4 3 8 11 3 5 2 3 2 13 4 13 5 17 18 20 11 18 19 21 21 26 24 26 17 13 16 17 17 17 17 11 10 13 21 24 20 18 10 5
24 25 22 4 2 8 10 10 2 3 7 3 2 9 18 7 12 9 7 19 17 20 21 19 11 26 28 19 21 13 8 10 6 7 12 15 11 13 15 19 16 13 9 2 2
26 24 12 5 3 1 8 2 3 5 6 2 6 12 15 12 10 13 16 10 15 18 19 17 19 6 15 17 17 20 14 6 7 7 9 14 12 18 15 19 18 18 6 1 4
27 18 5 4 4 4 2 1 5 3 7 12 12 16 14 11 6 11 18 8 17 15 11 14 12 21 20 18 14 25 20 8 7 6 9 5 9 7 17 18 22 16 9 4 8
21 3 2 2 4 3 2 3 3 3 6 11 15 9 5 8 10 7 8 11 5 12 7 12 14 14 22 14 21 19 19 15 5 1 5 4 6 10 17 14 11 10 5 7 10
4 4 4 7 4 2 1 4 4 6 10 7 7 6 10 9 10 3 4 12 12 13 12 7 11 13 20 22 24 18 19 10 9 9 9 6 5 8 6 9 8 8 8 9 11
2 2 1 7 3 1 1 3 6 10 9 4 6 8 9 11 8 2 3 10 12 18 17 10 7 14 18 21 22 11 18 7 10 6 5 3 5 9 14 8 7 2 9 12 12
3 2 3 4 1 1 3 8 8 9 8 7 7 9 8 11 8 3 4 4 6 9 10 7 6 6 24 13 18 20 21 19 9 10 10 2 5 1 8 7 7 2 8 13 12
5 3 2 2 3 6 8 8 5 7 8 5 5 4 10 8 5 5 2 3 3 5 5 8 5 10 8 7 15 25 21 17 6 5 16 10 4 3 4 4 1 4 10 13 14
2 4 3 3 1 4 7 6 6 8 10 5 10 8 9 7 5 5 6 2 4 3 7 8 4 11 11 9 2 25 24 20 15 9 9 17 12 19 14 6 6 5 9 13 15
3 2 1 4 4 9 5 6 10 7 4 6 2 3 8 5 11 3 5 7 1 2 6 6 3 6 15 11 8 15 20 24 22 17 11 7 22 19 14 10 4 7 10 13 16
2 3 2 5 8 9 4 4 9 8 4 10 6 10 12 11 13 15 12 3 4 2 4 6 2 8 9 14 11 8 6 15 25 23 21 16 18 13 14 9 3 9 14 15 16
0 2 2 5 4 5 3 5 8 13 9 11 12 14 15 14 11 10 13 13 13 7 3 1 4 4 5 5 6 10 14 9 12 20 20 21 25 15 16 14 8 10 17 18 18
Wind_Direction
2 359 353 345 340 339 338 333 333 328 328 329 326 330 330 329 322 305 257 222 180 210 158 153 208 187 165 169 145 138 228 238 237 226 251 253 256 39 327 290 263 261 290 300 305
354 351 347 343 344 341 332 330 331 327 323 323 329 328 330 328 316 274 250 235 235 190 187 170 179 189 179 184 176 199 227 233 235 239 251 274 291 305 289 292 278 282 278 267 277
353 352 348 341 334 330 331 333 328 326 326 324 322 327 326 321 276 238 352 247 246 189 202 200 202 190 205 199 183 206 231 234 257 249 263 281 278 287 289 288 281 292 296 302 298
349 347 344 340 336 334 329 323 323 324 322 320 321 319 323 291 246 149 31 24 5 205 215 218 193 206 205 208 211 237 230 239 250 259 263 264 288 281 284 268 281 287 287 284 285
348 345 342 337 335 331 326 323 318 314 315 315 316 317 320 236 241 255 3 10 67 157 202 201 194 205 205 211 215 229 242 236 248 266 263 272 266 270 284 281 287 277 277 271 275
343 341 340 336 333 329 325 320 314 316 308 310 307 307 254 250 235 298 336 349 225 175 189 207 216 225 252 225 209 233 239 245 247 255 264 269 272 269 264 268 285 280 273 276 272
340 337 336 335 332 327 321 316 313 304 296 292 290 284 254 248 279 287 300 280 311 307 231 231 228 242 243 240 238 243 256 243 241 241 253 286 271 246 259 279 271 273 275 276 276
338 335 333 331 330 326 321 318 308 298 291 283 263 256 256 248 276 270 265 275 240 239 246 252 225 232 234 292 161 223 230 244 235 236 248 217 266 264 271 269 275 274 279 277 275
335 333 332 330 329 325 321 319 310 307 288 224 211 216 266 291 266 258 247 250 247 204 213 253 206 219 207 230 243 213 241 226 247 207 218 200 268 262 273 289 283 279 281 279 280
332 332 331 331 329 326 323 312 305 67 112 151 206 248 255 297 270 305 252 229 228 179 179 207 201 214 214 201 219 227 236 239 243 229 227 249 256 276 288 297 278 282 282 277 274
331 331 331 330 326 326 327 335 337 195 346 261 259 251 287 267 283 254 311 217 214 194 189 188 200 221 212 217 239 248 251 249 252 232 243 256 275 283 295 291 284 286 285 278 274
328 330 330 329 326 328 343 21 73 328 300 264 249 251 255 272 298 271 235 212 194 205 194 183 222 219 221 217 224 231 245 246 251 252 262 279 278 287 285 279 280 280 284 277 282
327 329 329 326 324 25 311 278 341 332 258 292 249 252 249 220 240 276 213 208 217 208 195 198 226 205 210 213 215 225 233 238 246 267 271 283 281 278 277 273 277 278 272 276 270
330 329 328 332 314 329 305 239 327 297 289 273 245 251 276 224 240 244 223 212 218 219 204 226 220 197 207 219 207 232 225 247 250 254 262 318 288 279 283 284 281 283 275 268 268
328 326 327 332 296 274 317 325 325 184 297 77 131 144 319 265 301 317 215 216 228 204 195 215 195 197 203 203 206 239 226 225 236 245 272 258 266 280 286 281 275 274 268 279 316
327 326 327 293 226 262 297 319 242 210 245 306 71 347 340 356 341 314 261 228 219 240 227 221 210 196 213 199 200 194 201 206 223 246 252 258 248 278 268 257 274 265 253 7 21
331 329 326 294 282 185 341 292 205 236 336 19 345 333 325 327 348 347 323 202 217 202 224 214 224 199 192 185 192 196 185 207 224 217 249 243 234 246 261 250 259 262 281 38 130
331 321 322 265 294 290 283 172 229 270 276 332 341 328 307 3 356 340 335 249 217 241 230 209 196 207 191 197 179 190 187 177 205 217 250 148 217 253 245 260 244 249 278 169 151
326 353 345 338 307 189 239 207 278 281 353 331 325 314 314 340 342 349 347 331 15 232 273 209 225 183 186 187 180 183 202 203 254 283 277 171 261 278 247 246 235 238 218 176 160
349 334 8 350 104 266 271 290 291 325 330 319 294 263 293 318 323 38 330 32 355 3 353 280 224 198 185 183 201 201 187 185 206 221 236 238 280 257 313 243 205 193 193 170 156
27 11 49 4 49 319 336 296 300 300 320 296 293 295 286 296 323 355 239 327 3 342 336 274 277 174 167 201 187 178 187 187 190 215 207 279 246 213 252 263 270 346 153 157 156
346 1 357 341 335 150 340 324 315 298 325 297 280 281 273 313 301 277 215 174 34 353 325 304 298 250 207 195 196 199 187 183 185 193 220 271 256 239 246 294 309 249 141 140 160
349 301 339 308 37 352 332 312 279 294 324 319 295 318 314 303 304 337 220 150 137 360 338 340 238 224 157 200 204 200 199 190 172 161 198 198 233 207 280 235 56 119 139 148 163
350 346 343 27 24 328 323 298 305 296 297 305 281 313 324 311 309 284 285 199 192 293 322 319 267 254 211 201 67 201 197 196 201 202 194 215 223 264 275 332 49 119 149 164 170
6 30 10 316 329 317 302 306 304 317 309 312 269 339 353 309 321 39 5 320 198 51 347 357 269 293 268 274 300 174 200 204 207 216 221 205 227 240 265 304 11 151 158 176 168
356 331 310 286 297 303 298 300 288 307 298 309 272 321 323 294 288 294 302 352 317 308 349 341 8 340 257 256 256 255 198 214 209 221 237 250 257 240 283 307 222 176 171 191 176
285 263 262 284 279 288 279 285 289 300 280 260 296 309 298 291 292 280 283 265 257 265 293 285 339 331 209 313 253 244 237 212 210 224 221 225 241 260 267 277 274 193 184 198 179